Location: Date Creek
(34.2167°N, 113.0301°W)
Time: 16:23:04
(UTC-07:00)

Amateur Radio Satellites - All Passes

Search period start: 18 November 2017 15:53
Search period end: 19 November 2017 15:53
Location: Date Creek, 34.2167°N, 113.0301°W

Satellite Date Start Highest point End Downlink Frequencies (MHz)
Time Altitude Azimuth
BEESAT 18 Nov 16:01:15 16:06:01 90° 103° (ESE) 16:10:45 436.000
AO-7 18 Nov 16:06:21 16:14:02 42° 259° (W) 16:21:48 .
ITAMSAT 1 18 Nov 16:07:38 16:12:31 40° 261° (W) 16:17:26 435.822/435.867
ITUPSAT 1 18 Nov 16:08:53 16:13:38 77° 284° (WNW) 16:18:22 437.325
DOVE 4 18 Nov 16:20:45 16:25:17 39° 72° (ENE) 16:30:02 437.250
NO-84 18 Nov 16:30:58 16:34:29 44° 317° (NW) 16:38:18 435.350 FM
JUGNU 18 Nov 16:36:05 16:39:42 17° 172° (S) 16:43:20 437.505
MOZHAYETS 4 18 Nov 16:51:15 16:54:23 19° 292° (WNW) 16:57:30
CUBESAT XI-V 18 Nov 16:53:29 16:58:10 82° 285° (WNW) 17:02:52 437.345
YUBILEINY 18 Nov 17:01:38 17:10:11 51° 79° (ENE) 17:18:39 435.215
XW-2D 18 Nov 17:03:37 17:06:03 17° 70° (ENE) 17:08:30 145.860 - 145.880
XW-2B 18 Nov 17:17:39 17:20:41 24° 72° (ENE) 17:23:44 145.730 - 145.750
CUTE-I 18 Nov 17:18:44 17:23:16 29° 69° (ENE) 17:27:49 437.470
FALCONSAT 3 18 Nov 17:19:46 17:21:46 14° 212° (SSW) 17:23:47 435.103
HO-68 18 Nov 17:23:17 17:28:02 19° 60° (ENE) 17:32:48 435.675
KKS-1 18 Nov 17:26:49 17:31:07 47° 100° (E) 17:35:23 437.445
LilacSat-2 18 Nov 17:40:35 17:44:15 56° 76° (ENE) 17:47:57 437.200
RS-15 18 Nov 17:41:31 17:50:35 25° 101° (E) 17:59:38 29.354- 29.394
XW-2C 18 Nov 17:42:22 17:46:00 54° 76° (ENE) 17:49:39 145.795 - 145.815
NUDT-PHONESAT 18 Nov 17:45:12 17:48:34 37° 74° (ENE) 17:51:57 437.300
XW-2F 18 Nov 17:55:47 17:59:29 79° 76° (ENE) 18:03:12 145.980 - 146.000
STARS 18 Nov 17:59:34 18:03:44 41° 99° (E) 18:07:50 437.465
DOVE 4 18 Nov 17:59:36 18:03:04 19° 268° (W) 18:06:41 437.250
SRMSAT 18 Nov 18:16:15 18:18:25 12° 165° (SSE) 18:20:36 437.500
CUTE 1.7 + AOD 2 18 Nov 18:16:29 18:20:05 29° 72° (ENE) 18:23:44 437.475
JUGNU 18 Nov 18:24:00 18:28:01 19° 182° (S) 18:32:02 437.505
KAITUO 1B 18 Nov 18:29:02 18:32:32 45° 261° (W) 18:36:04 145.475/437.950
XW-2D 18 Nov 18:36:57 18:40:00 24° 264° (W) 18:43:04 145.860 - 145.880
CUBEBUG 2 18 Nov 18:41:54 18:46:07 36° 73° (ENE) 18:50:17 437.445
SEEDS 18 Nov 18:52:17 18:56:14 46° 75° (ENE) 19:00:14 437.485
XW-2B 18 Nov 18:52:23 18:54:48 16° 265° (W) 18:57:14 145.730 - 145.750
CUTE-I 18 Nov 18:58:32 19:03:10 30° 263° (W) 19:07:50 437.470
YUBILEINY 18 Nov 18:59:11 19:06:29 30° 275° (W) 19:13:47 435.215
AO-73 18 Nov 19:00:47 19:02:51 13° 68° (ENE) 19:04:54 145.935
KKS-1 18 Nov 19:05:02 19:07:13 14° 294° (WNW) 19:09:23 437.445
HO-68 18 Nov 19:07:50 19:14:59 73° 256° (WSW) 19:22:12 435.675
AAUSAT CUBESAT 2 18 Nov 19:08:23 19:11:55 28° 72° (ENE) 19:15:29 437.432
Oscar 11 18 Nov 19:20:11 19:22:32 15° 68° (ENE) 19:24:54 .
FO-29 18 Nov 19:33:42 19:37:29 14° 88° (E) 19:41:08 435.910
STARS 18 Nov 19:37:13 19:39:40 15° 293° (WNW) 19:42:04 437.465
ZACube-1 18 Nov 19:41:40 19:45:52 47° 75° (ENE) 19:49:59 437.345
UWE-3 18 Nov 19:44:31 19:49:03 78° 259° (W) 19:53:28 435.000/436.395/437.385
RS-15 18 Nov 19:49:26 20:01:43 80° 299° (WNW) 20:14:06 29.354- 29.394
XW-2A 18 Nov 19:52:01 19:55:16 52° 260° (W) 19:58:31 145.665 - 145.685
CUTE 1.7 + AOD 2 18 Nov 19:53:03 19:55:54 18° 266° (W) 19:58:46 437.475
STRAND 1 18 Nov 19:53:26 19:58:32 69° 102° (ESE) 20:03:36 437.568
SRMSAT 18 Nov 20:02:50 20:06:51 19° 175° (S) 20:10:54 437.500
JUGNU 18 Nov 20:13:23 20:16:18 14° 192° (SSW) 20:19:13 437.505
CUBEBUG 2 18 Nov 20:19:37 20:22:45 18° 266° (W) 20:25:52 437.445
SEEDS 18 Nov 20:31:04 20:32:07 11° 268° (W) 20:33:10 437.485
AO-73 18 Nov 20:34:31 20:38:41 44° 261° (W) 20:42:47 145.935
AAUSAT CUBESAT 2 18 Nov 20:44:35 20:47:21 17° 266° (W) 20:50:07 437.432
Oscar 11 18 Nov 20:54:16 20:58:17 39° 262° (W) 21:02:19 .
nSIGHT-1 18 Nov 21:13:17 21:16:20 43° 133° (SE) 21:19:25 .
UNISAT 6 18 Nov 21:13:33 21:15:09 12° 92° (E) 21:16:46 437.425
FO-29 18 Nov 21:15:26 21:23:21 89° 100° (E) 21:30:45 435.910
TIGRISAT 18 Nov 21:18:32 21:20:18 12° 93° (E) 21:22:04 435.000
ZACube-1 18 Nov 21:20:39 21:22:17 12° 267° (W) 21:23:56 437.345
STRAND 1 18 Nov 21:35:07 21:37:03 12° 297° (WNW) 21:39:00 437.568
DELFI C3 18 Nov 21:39:44 21:43:37 59° 260° (W) 21:47:32 145.870
Max Valier Satellite 18 Nov 21:45:56 21:49:35 71° 259° (W) 21:53:14 145.860
ISS 18 Nov 21:48:13 21:51:28 87° 308° (NW) 21:54:45 437.550
EO-88 18 Nov 21:50:45 21:54:21 88° 80° (E) 21:57:59 145.990 - 145.960
SRMSAT 18 Nov 21:51:17 21:55:21 19° 185° (S) 21:59:26 437.500
RS-15 18 Nov 22:06:59 22:16:26 25° 324° (NW) 22:25:52 29.354- 29.394
LO-87 18 Nov 22:24:42 22:27:36 23° 72° (ENE) 22:30:29 145.935 - 145.965
SO-50 18 Nov 22:33:54 22:38:22 86° 115° (ESE) 22:42:51 436.795
UNISAT 6 18 Nov 22:48:00 22:52:04 44° 286° (WNW) 22:56:05 437.425
nSIGHT-1 18 Nov 22:50:34 22:52:44 17° 329° (NNW) 22:54:54 .
TIGRISAT 18 Nov 22:53:09 22:57:10 42° 286° (WNW) 23:01:09 435.000
PRISM 18 Nov 23:01:14 23:05:25 82° 100° (E) 23:09:33 437.425
FO-29 18 Nov 23:02:33 23:07:13 17° 301° (WNW) 23:11:47 435.910
O/OREOS (USA 219) 18 Nov 23:04:54 23:06:10 11° 57° (ENE) 23:07:26 437.305
NO-84 18 Nov 23:06:51 23:10:25 25° 38° (NE) 23:13:56 435.350 FM
AIST 2D 18 Nov 23:09:27 23:12:25 25° 97° (E) 23:15:23 435.315
ESTCUBE 1 18 Nov 23:17:01 23:21:28 82° 76° (ENE) 23:25:57 437.505/2401.250
POLYITAN 1 18 Nov 23:25:08 23:26:56 12° 93° (E) 23:28:44 437.675
ISS 18 Nov 23:27:15 23:28:23 11° 333° (NNW) 23:29:32 437.550
SPROUT 18 Nov 23:31:59 23:35:29 25° 71° (ENE) 23:38:59 437.525
SRMSAT 18 Nov 23:41:32 23:43:48 12° 195° (SSW) 23:46:05 437.500
QB50P2 18 Nov 23:46:40 23:50:14 27° 97° (E) 23:53:47 145.880/145.840
VELOX 1 18 Nov 23:50:04 23:53:44 26° 70° (ENE) 23:57:26 145.980
LO-87 18 Nov 23:58:35 00:00:55 16° 265° (W) 00:03:15 145.935 - 145.965
SO-50 19 Nov 00:18:48 00:19:25 10° 315° (NW) 00:20:01 436.795
RS-15 19 Nov 00:31:29 00:35:44 12° 0° (N) 00:39:55 29.354- 29.394
DUCHIFAT 1 19 Nov 00:40:07 00:44:17 85° 101° (ESE) 00:48:26 145.980
O/OREOS (USA 219) 19 Nov 00:41:31 00:46:00 63° 253° (WSW) 00:50:26 437.305
AIST 2D 19 Nov 00:43:24 00:45:19 14° 290° (WNW) 00:47:14 435.315
NO-84 19 Nov 00:43:55 00:47:52 38° 234° (SW) 00:51:42 435.350 FM
DX 1 19 Nov 00:44:08 00:47:33 23° 69° (ENE) 00:51:00 434.975-435.025
EO-79 19 Nov 00:44:10 00:48:19 63° 285° (WNW) 00:52:26 145.935-145.965
NANOSAT C BR1 19 Nov 00:49:13 00:53:21 62° 284° (WNW) 00:57:27 145.865
PCSat 19 Nov 00:53:13 00:58:35 75° 114° (ESE) 01:04:00 145.827
50 SAT 19 Nov 00:57:29 01:00:21 30° 74° (ENE) 01:03:14 437.505
POLYITAN 1 19 Nov 00:58:55 01:02:51 41° 286° (WNW) 01:06:46 437.675
Oscar 19 19 Nov 00:59:11 01:02:23 16° 94° (E) 01:05:35 437.125/150
Gurwin Techsat 1B 19 Nov 01:04:36 01:06:52 13° 92° (E) 01:09:08 435.225
SPROUT 19 Nov 01:07:55 01:11:16 22° 264° (W) 01:14:37 437.525
QB50P2 19 Nov 01:22:46 01:25:49 20° 291° (WNW) 01:28:51 145.880/145.840
VELOX 1 19 Nov 01:26:36 01:30:04 23° 264° (W) 01:33:34 145.980
UKube-1 19 Nov 01:30:53 01:35:01 48° 74° (ENE) 01:39:11 .
BUGSAT 1 19 Nov 01:43:02 01:47:03 75° 284° (WNW) 01:51:02 437.445
MOZHAYETS 4 19 Nov 02:12:01 02:15:32 22° 69° (ENE) 02:19:03
DX 1 19 Nov 02:19:59 02:23:34 25° 263° (W) 02:27:12 434.975-435.025
AO-7 19 Nov 02:22:36 02:25:55 13° 92° (E) 02:29:14 .
Oscar 19 19 Nov 02:36:57 02:41:53 48° 287° (WNW) 02:46:49 437.125/150
PCSat 19 Nov 02:39:36 02:42:32 15° 311° (NW) 02:45:29 145.827
Gurwin Techsat 1B 19 Nov 02:41:54 02:47:10 64° 286° (WNW) 02:52:24 435.225
RS-15 19 Nov 02:45:29 02:54:48 25° 37° (NE) 03:03:43 29.354- 29.394
BEESAT 19 Nov 03:03:38 03:08:22 68° 75° (ENE) 03:13:06 436.000
UKube-1 19 Nov 03:09:51 03:11:15 11° 267° (W) 03:12:39 .
ITUPSAT 1 19 Nov 03:11:33 03:16:20 81° 77° (ENE) 03:21:08 437.325
M-CUBED/EXP-1 PRIME 19 Nov 03:13:50 03:18:23 77° 107° (ESE) 03:23:02 437.505
BEESAT 3 19 Nov 03:15:05 03:19:00 62° 116° (ESE) 03:22:56 437.485
nSIGHT-1 19 Nov 03:44:04 03:45:35 13° 29° (NNE) 03:47:07 .
MOZHAYETS 4 19 Nov 03:48:33 03:52:30 28° 263° (W) 03:56:26
CUBESAT XI-V 19 Nov 03:52:46 03:57:16 63° 75° (ENE) 04:01:49 437.345
AO-85 19 Nov 03:53:41 03:55:35 13° 109° (ESE) 03:57:31 145.980
AO-7 19 Nov 04:11:13 04:19:36 83° 107° (ESE) 04:27:59 .
ISS 19 Nov 04:19:27 04:21:59 20° 33° (NNE) 04:24:30 437.550
BEESAT 2 19 Nov 04:20:28 04:24:27 87° 298° (WNW) 04:28:31 435.950
KKS-1 19 Nov 04:21:20 04:25:07 28° 70° (ENE) 04:28:56 437.445
ITAMSAT 1 19 Nov 04:23:48 04:29:01 85° 285° (WNW) 04:34:12 435.822/435.867
DOVE 4 19 Nov 04:24:47 04:27:45 15° 91° (E) 04:30:37 437.250
M-CUBED/EXP-1 PRIME 19 Nov 04:51:35 04:52:08 10° 300° (WNW) 04:52:42 437.505
STARS 19 Nov 04:52:45 04:56:18 24° 69° (ENE) 04:59:50 437.465
BEESAT 3 19 Nov 04:55:45 04:56:53 11° 312° (NW) 04:58:02 437.485
RS-15 19 Nov 04:57:21 05:09:12 86° 62° (ENE) 05:20:21 29.354- 29.394
nSIGHT-1 19 Nov 05:18:59 05:22:08 70° 226° (SW) 05:25:17 .
AO-85 19 Nov 05:32:00 05:35:34 35° 304° (NW) 05:39:15 145.980
XW-2F 19 Nov 05:33:56 05:34:30 10° 93° (E) 05:35:05 145.980 - 146.000
CUTE-I 19 Nov 05:40:28 05:43:29 15° 93° (E) 05:46:27 437.470
ISS 19 Nov 05:55:33 05:58:30 32° 228° (SW) 06:01:26 437.550
YUBILEINY 19 Nov 05:57:23 06:05:57 65° 92° (E) 06:14:37 435.215
KKS-1 19 Nov 05:58:10 06:01:36 22° 264° (W) 06:05:04 437.445
DOVE 4 19 Nov 06:00:41 06:05:42 50° 286° (WNW) 06:10:27 437.250
KAITUO 1B 19 Nov 06:03:52 06:06:44 20° 96° (E) 06:09:35 145.475/437.950
AO-7 19 Nov 06:05:50 06:11:21 20° 304° (NW) 06:16:54 .
XW-2D 19 Nov 06:12:04 06:15:39 39° 99° (E) 06:19:14 145.860 - 145.880
XW-2B 19 Nov 06:26:39 06:30:25 61° 100° (E) 06:34:11 145.730 - 145.750
STARS 19 Nov 06:28:50 06:32:29 25° 263° (W) 06:36:08 437.465
HO-68 19 Nov 06:40:26 06:46:21 27° 96° (E) 06:52:12 435.675
SEEDS 19 Nov 06:42:26 06:43:02 10° 92° (E) 06:43:37 437.485
LilacSat-2 19 Nov 06:51:11 06:54:55 53° 284° (WNW) 06:58:39 437.200
NUDT-PHONESAT 19 Nov 06:51:53 06:55:36 88° 283° (WNW) 06:59:19 437.300
XW-2C 19 Nov 06:52:08 06:55:52 55° 284° (WNW) 06:59:35 145.795 - 145.815
XW-2F 19 Nov 07:05:11 07:08:44 39° 286° (WNW) 07:12:18 145.980 - 146.000
STRAND 1 19 Nov 07:05:24 07:10:30 67° 75° (ENE) 07:15:36 437.568
SO-50 19 Nov 07:08:45 07:12:47 28° 54° (NE) 07:16:50 436.795
RS-15 19 Nov 07:12:30 07:19:55 20° 261° (W) 07:27:10 29.354- 29.394
CUTE-I 19 Nov 07:18:33 07:23:47 55° 287° (WNW) 07:28:59 437.470
XW-2A 19 Nov 07:19:06 07:19:47 10° 93° (E) 07:20:28 145.665 - 145.685
FO-29 19 Nov 07:23:56 07:29:13 27° 64° (ENE) 07:34:59 435.910
ZACube-1 19 Nov 07:35:50 07:36:57 11° 92° (E) 07:38:04 437.345
KAITUO 1B 19 Nov 07:37:45 07:40:33 20° 289° (WNW) 07:43:22 145.475/437.950
UWE-3 19 Nov 07:38:15 07:41:41 25° 96° (E) 07:45:07 435.000/436.395/437.385
CUTE 1.7 + AOD 2 19 Nov 07:39:43 07:43:59 81° 285° (WNW) 07:48:15 437.475
XW-2D 19 Nov 07:48:15 07:49:24 11° 292° (WNW) 07:50:33 145.860 - 145.880
YUBILEINY 19 Nov 07:56:47 08:03:21 23° 290° (WNW) 08:09:59 435.215
CUBEBUG 2 19 Nov 08:12:30 08:16:35 59° 285° (WNW) 08:20:38 437.445
SEEDS 19 Nov 08:14:49 08:18:56 51° 285° (WNW) 08:23:02 437.485
AO-73 19 Nov 08:25:47 08:29:42 41° 99° (E) 08:33:38 145.935
HO-68 19 Nov 08:27:22 08:34:12 49° 291° (WNW) 08:41:00 435.675
AAUSAT CUBESAT 2 19 Nov 08:28:25 08:32:37 88° 285° (WNW) 08:36:47 437.432
Oscar 11 19 Nov 08:44:41 08:48:52 47° 99° (E) 08:53:02 .
STRAND 1 19 Nov 08:48:28 08:50:03 11° 268° (W) 08:51:39 437.568
SO-50 19 Nov 08:49:12 08:53:08 27° 248° (WSW) 08:57:06 436.795
XW-2A 19 Nov 08:49:35 08:52:31 29° 286° (WNW) 08:55:28 145.665 - 145.685
FO-29 19 Nov 09:07:46 09:13:46 47° 263° (W) 09:20:35 435.910
ZACube-1 19 Nov 09:09:28 09:13:25 45° 285° (WNW) 09:17:23 437.345
UWE-3 19 Nov 09:14:57 09:17:58 20° 290° (WNW) 09:20:59 435.000/436.395/437.385
DELFI C3 19 Nov 09:20:36 09:23:42 21° 96° (E) 09:26:45 145.870
Max Valier Satellite 19 Nov 09:20:46 09:22:29 13° 94° (E) 09:24:12 145.860
UNISAT 6 19 Nov 09:42:09 09:46:46 85° 255° (WSW) 09:51:20 437.425
PCSat 19 Nov 09:45:15 09:49:51 28° 56° (NE) 09:54:25 145.827
PRISM 19 Nov 09:46:42 09:50:23 33° 72° (ENE) 09:54:06 437.425
TIGRISAT 19 Nov 09:47:07 09:51:44 83° 256° (WSW) 09:56:18 435.000
AO-73 19 Nov 10:03:43 10:05:32 13° 292° (WNW) 10:07:21 145.935
FALCONSAT 3 19 Nov 10:08:50 10:12:00 27° 154° (SSE) 10:15:10 435.103
Oscar 11 19 Nov 10:22:40 10:24:33 13° 293° (WNW) 10:26:25 .
QB50P2 19 Nov 10:36:55 10:39:01 13° 67° (ENE) 10:41:06 145.880/145.840
Max Valier Satellite 19 Nov 10:53:06 10:56:20 29° 287° (WNW) 10:59:32 145.860
DELFI C3 19 Nov 10:55:11 10:58:18 22° 289° (WNW) 11:01:23 145.870
EO-88 19 Nov 10:56:17 10:59:42 39° 285° (WNW) 11:03:07 145.990 - 145.960
AIST 2D 19 Nov 11:12:04 11:15:30 72° 259° (W) 11:18:57 435.315
ESTCUBE 1 19 Nov 11:13:40 11:17:15 23° 96° (E) 11:20:48 437.505/2401.250
PRISM 19 Nov 11:23:16 11:25:42 15° 266° (W) 11:28:09 437.425
LO-87 19 Nov 11:27:26 11:30:50 45° 99° (E) 11:34:13 145.935 - 145.965
DUCHIFAT 1 19 Nov 11:27:58 11:31:50 36° 73° (ENE) 11:35:42 145.980
PCSat 19 Nov 11:28:22 11:33:14 35° 251° (WSW) 11:38:04 145.827
EO-79 19 Nov 11:32:19 11:36:28 56° 75° (ENE) 11:40:38 145.935-145.965
BEESAT 3 19 Nov 11:36:43 11:38:21 12° 49° (NE) 11:39:58 437.485
NANOSAT C BR1 19 Nov 11:37:01 11:41:09 55° 75° (ENE) 11:45:17 145.865
POLYITAN 1 19 Nov 11:46:56 11:51:12 86° 76° (ENE) 11:55:27 437.675
FALCONSAT 3 19 Nov 11:47:11 11:50:52 86° 165° (SSE) 11:54:34 435.103
QB50P2 19 Nov 12:10:20 12:14:23 42° 261° (W) 12:18:25 145.880/145.840
Oscar 19 19 Nov 12:12:47 12:16:04 17° 66° (ENE) 12:19:21 437.125/150
Gurwin Techsat 1B 19 Nov 12:21:59 12:25:03 16° 64° (ENE) 12:28:06 435.225
BUGSAT 1 19 Nov 12:28:32 12:32:31 43° 74° (ENE) 12:36:29 437.445
BEESAT 2 19 Nov 12:42:13 12:45:00 18° 51° (NE) 12:47:44 435.950
ESTCUBE 1 19 Nov 12:50:09 12:53:57 27° 289° (WNW) 12:57:46 437.505/2401.250
SPROUT 19 Nov 12:55:52 13:00:08 80° 102° (ESE) 13:04:21 437.525
DUCHIFAT 1 19 Nov 13:05:13 13:07:34 15° 266° (W) 13:09:56 145.980
O/OREOS (USA 219) 19 Nov 13:11:36 13:15:13 23° 101° (ESE) 13:18:50 437.305
BEESAT 3 19 Nov 13:12:22 13:16:11 50° 245° (WSW) 13:19:54 437.485
AO-7 19 Nov 13:18:11 13:22:34 16° 53° (NE) 13:26:56 .
VELOX 1 19 Nov 13:18:55 13:23:24 88° 105° (ESE) 13:27:50 145.980
UKube-1 19 Nov 13:24:16 13:25:02 10° 92° (E) 13:25:49 .
FALCONSAT 3 19 Nov 13:26:21 13:30:03 72° 4° (N) 13:33:44 435.103
50 SAT 19 Nov 13:49:53 13:52:59 43° 100° (E) 13:56:02 437.505
Oscar 19 19 Nov 13:50:04 13:54:58 47° 260° (W) 13:59:54 437.125/150
M-CUBED/EXP-1 PRIME 19 Nov 13:56:32 13:59:48 43° 69° (ENE) 14:03:18 437.505
Gurwin Techsat 1B 19 Nov 13:59:15 14:04:27 57° 259° (W) 14:09:41 435.225
ITAMSAT 1 19 Nov 14:03:11 14:04:23 11° 62° (ENE) 14:05:36 435.822/435.867
AO-85 19 Nov 14:05:02 14:09:47 61° 60° (ENE) 14:14:50 145.980
BUGSAT 1 19 Nov 14:06:17 14:08:01 12° 267° (W) 14:09:44 437.445
DX 1 19 Nov 14:10:43 14:15:06 71° 102° (ESE) 14:19:27 434.975-435.025
BEESAT 2 19 Nov 14:19:11 14:22:47 33° 247° (WSW) 14:26:19 435.950
JUGNU 19 Nov 14:35:31 14:36:17 10° 164° (SSE) 14:37:02 437.505
O/OREOS (USA 219) 19 Nov 14:50:31 14:54:26 27° 296° (WNW) 14:58:23 437.305
UKube-1 19 Nov 14:57:06 15:01:18 52° 286° (WNW) 15:05:29 .
FALCONSAT 3 19 Nov 15:05:31 15:09:09 58° 198° (SSW) 15:12:46 435.103
AO-7 19 Nov 15:05:46 15:14:02 81° 71° (ENE) 15:22:21 .
BEESAT 19 Nov 15:08:04 15:11:47 22° 96° (E) 15:15:28 436.000
ITUPSAT 1 19 Nov 15:16:11 15:20:12 27° 97° (E) 15:24:12 437.325
DOVE 4 19 Nov 15:28:00 15:29:13 11° 63° (ENE) 15:30:27 437.250
ITAMSAT 1 19 Nov 15:37:52 15:43:06 81° 258° (WSW) 15:48:21 435.822/435.867
AO-85 19 Nov 15:47:23 15:49:48 14° 252° (WSW) 15:52:16 145.980
